Voltar ao catálogo

SL-16 DEB

AtivoLEO
NORAD 22421·DEBRIS·🇷🇺 Russia

Lançado Dec 25, 1992 de Baikonur Cosmodrome

Loading…

Próximas Passagens (próximas 24 horas)

TLE

AtualizadoSource: Space-Track

Época: Sep 14, 2026, 02:40 UTC

1 22421U 92093DN  26257.11166118  .00000110  00000-0  82669-4 0  9998
2 22421  71.0360 299.8814 0093456 175.5521 215.3681 14.11744250729669

Acompanhe SL-16 DEB em tempo real com AllMySat

Download on the App Store